Location: Corcelles
(46.1547°N, 4.7234°E)
Time: 21:07:37
(UTC+00:00)

SL-24 DEB - Pass Details

Date: 14 July 2020
Orbit: 667 x 698 km, 92.0° (Epoch: 14 August)

Event Time Altitude Azimuth Distance (km) Brightness Sun altitude
Rises 00:54:56 0° 3° (N) 3,067 9.0 -20.5°
Reaches altitude 10° 00:57:12 10° 2° (N) 2,151 7.9 -20.4°
Maximum altitude 01:01:57 78° 277° (W) 715 4.2 -20.1°
Enters shadow 01:03:22 46° 201° (SSW) 938 4.5 -20.0°
